Regional Weather Roundup
Issued by NWS

Home | Current Version | Previous Version | Graphics & Text | Print | Product List | Glossary On
Versions: 1 2 3 4 5 6 7 8 9 10 11 12 13 14 15 16 17 18 19 20 21 22 23 24 25 26 27 28 29 30 31 32 33 34 35 36 37 38 39 40 41 42 43 44 45 46 47 48 49 50
000
ASUS43 KFSD 300402
RWRSD

WEATHER ROUNDUP FOR SOUTH DAKOTA
NATIONAL WEATHER SERVICE SIOUX FALLS SD
1100 PM CDT FRI APR 29 2016

NOTE: "FAIR" INDICATES FEW OR NO CLOUDS BELOW 12,000 FEET WITH NO
SIGNIFICANT WEATHER AND/OR OBSTRUCTIONS TO VISIBILITY.


SDZ001>005-009-010-012>017-300500-
NORTHWEST AND NORTH CENTRAL SOUTH DAKOTA

CITY           SKY/WX    TMP DP  RH WIND       PRES   REMARKS
BUFFALO          N/A     41  33  73 SE7       30.02R
FAITH            N/A     43  35  73 SE6       30.07R
MOBRIDGE       CLOUDY    47  40  76 SE7       30.07R
$$

SDZ012>016-024>037-041>051-057-063-072>074-300500-
SOUTHWEST AND SOUTH CENTRAL SOUTH DAKOTA

CITY           SKY/WX    TMP DP  RH WIND       PRES   REMARKS
RAPID CTY ARPT CLOUDY    41  36  82 N5        30.05S
PIERRE         MOCLDY    39  36  89 NE6       30.06F
CUSTER         CLOUDY    32  30  92 NE17G28   29.98S FOG     WCI  21
ELLSWORTH AFB  CLOUDY    42  38  86 NE3       30.05R
PHILIP         CLOUDY    43  38  82 E10       30.04S
PINE RIDGE     LGT RAIN  37  34  89 E9        30.00R
WINNER         CLOUDY    44  39  82 E7        30.02F
$$

SDZ004>011-016>023-039-040-300500-
NORTHEAST SOUTH DAKOTA

CITY           SKY/WX    TMP DP  RH WIND       PRES   REMARKS
ABERDEEN       CLOUDY    46  39  76 CALM      30.10S
WATERTOWN      CLOUDY    41  36  82 NE6       30.07S
BROOKINGS      CLOUDY    44  39  82 E6        30.06S
SISSETON         N/A     44  39  82 CALM      30.09S
$$

SDZ017-020-022-023-036>040-048>070-300500-
SOUTHEAST SOUTH DAKOTA

CITY           SKY/WX    TMP DP  RH WIND       PRES   REMARKS
SIOUX FALLS    MOCLDY    42  38  85 E6        30.06R
HURON          CLOUDY    45  41  86 CALM      30.08R
MITCHELL       CLOUDY    47  42  83 NE7       30.07S
YANKTON        CLOUDY    45  39  81 NE7       30.04R
$$

ABBREVIATIONS USED IN REMARKS
   TC - TEMPERATURE IN CELSIUS
  WCI - WIND CHILL INDEX
   HX - HEAT INDEX
  VSB - VISIBILITY




USA.gov is the U.S. government's official web portal to all federal, state and local government web resources and services.